When you browse on this site, cookies collect data to enhance your experience and personalize the content and advertising you see.
Visit our Privacy Policy to learn more. By continuing to use the site, you agree to this use of cookies and data.
  • In Schweiz
  • Länderverzeichnis
  • Für 7 Tage
  • Wassertemperatur
  • Satellitenkarten
  • Wetterkarte
  • Widgets
  • user-avatar
    Anmelden

    Stündliche Wetter Julara

    Heute, 25 Mai, Samstag

    Zeit Temperatur Niederschläge Wind Luftdruck Luftfeuchtigkeit
    00:00 +20°C° 0 mm 2 m/S 721 mmHg 28%
    01:00 +21°C° 0 mm 1 m/S 720 mmHg 31%
    02:00 +20°C° 0 mm 1 m/S 720 mmHg 34%
    03:00 +17°C° 0 mm 0 m/S 720 mmHg 37%
    04:00 +16°C° 0 mm 0 m/S 720 mmHg 38%
    05:00 +16°C° 0 mm 0 m/S 720 mmHg 39%
    06:00 +16°C° 0 mm 0 m/S 720 mmHg 40%
    07:00 +18°C° 0 mm 0 m/S 720 mmHg 36%
    08:00 +20°C° 0 mm 0 m/S 721 mmHg 31%
    09:00 +22°C° 0 mm 0 m/S 721 mmHg 26%
    10:00 +25°C° 0 mm 1 m/S 721 mmHg 24%
    11:00 +26°C° 0 mm 1 m/S 721 mmHg 22%
    12:00 +28°C° 0 mm 1 m/S 721 mmHg 20%
    13:00 +28°C° 0 mm 2 m/S 720 mmHg 20%
    14:00 +29°C° 0 mm 2 m/S 720 mmHg 19%
    15:00 +29°C° 0 mm 2 m/S 720 mmHg 18%
    16:00 +28°C° 0 mm 3 m/S 720 mmHg 22%
    17:00 +27°C° 0 mm 4 m/S 720 mmHg 26%
    18:00 +25°C° 0 mm 5 m/S 720 mmHg 30%
    19:00 +23°C° 0 mm 5 m/S 720 mmHg 33%
    20:00 +22°C° 0 mm 5 m/S 721 mmHg 36%
    21:00 +21°C° 0 mm 6 m/S 721 mmHg 39%
    22:00 +21°C° 0 mm 6 m/S 721 mmHg 41%
    23:00 +20°C° 0 mm 5 m/S 721 mmHg 43%

    Morgen, 26 Mai, Sonntag

    Zeit Temperatur Niederschläge Wind Luftdruck Luftfeuchtigkeit
    00:00 +19°C° 0 mm 5 m/S 721 mmHg 44%
    01:00 +17°C° 0 mm 5 m/S 721 mmHg 45%
    02:00 +17°C° 0 mm 5 m/S 721 mmHg 45%
    03:00 +16°C° 0 mm 5 m/S 721 mmHg 46%
    04:00 +17°C° 0 mm 4 m/S 721 mmHg 45%
    05:00 +15°C° 0 mm 4 m/S 721 mmHg 44%
    06:00 +15°C° 0 mm 4 m/S 722 mmHg 44%
    07:00 +16°C° 0 mm 5 m/S 722 mmHg 42%
    08:00 +16°C° 0 mm 5 m/S 722 mmHg 40%
    09:00 +17°C° 0 mm 5 m/S 723 mmHg 38%
    10:00 +20°C° 0 mm 5 m/S 722 mmHg 35%
    11:00 +21°C° 0 mm 5 m/S 722 mmHg 33%
    12:00 +23°C° 0 mm 4 m/S 722 mmHg 31%
    13:00 +23°C° 0 mm 4 m/S 721 mmHg 30%
    14:00 +25°C° 0 mm 3 m/S 721 mmHg 30%
    15:00 +25°C° 0 mm 2 m/S 720 mmHg 29%
    16:00 +24°C° 0 mm 2 m/S 721 mmHg 31%
    17:00 +24°C° 0 mm 3 m/S 721 mmHg 33%
    18:00 +22°C° 0 mm 3 m/S 721 mmHg 35%
    19:00 +21°C° 0 mm 3 m/S 721 mmHg 36%
    20:00 +20°C° 0 mm 3 m/S 722 mmHg 38%
    21:00 +20°C° 0 mm 4 m/S 722 mmHg 39%
    22:00 +19°C° 0 mm 4 m/S 722 mmHg 40%
    23:00 +18°C° 0 mm 4 m/S 722 mmHg 41%

    übermorgen, 27 Mai, Montag

    Zeit Temperatur Niederschläge Wind Luftdruck Luftfeuchtigkeit
    00:00 +16°C° 0 mm 5 m/S 723 mmHg 43%
    01:00 +16°C° 0 mm 5 m/S 722 mmHg 45%
    02:00 +15°C° 0 mm 5 m/S 722 mmHg 48%
    03:00 +14°C° 0 mm 5 m/S 722 mmHg 50%
    04:00 +14°C° 0 mm 5 m/S 722 mmHg 53%
    05:00 +13°C° 0 mm 5 m/S 723 mmHg 56%
    06:00 +13°C° 0 mm 4 m/S 723 mmHg 59%
    07:00 +14°C° 0 mm 5 m/S 723 mmHg 56%
    08:00 +14°C° 0 mm 6 m/S 723 mmHg 53%
    09:00 +15°C° 0 mm 6 m/S 724 mmHg 50%
    10:00 +17°C° 0 mm 6 m/S 724 mmHg 46%
    11:00 +19°C° 0 mm 5 m/S 724 mmHg 41%
    12:00 +21°C° 0 mm 5 m/S 723 mmHg 37%
    13:00 +21°C° 0 mm 4 m/S 723 mmHg 34%
    14:00 +22°C° 0 mm 4 m/S 722 mmHg 32%
    15:00 +22°C° 0 mm 3 m/S 722 mmHg 29%
    16:00 +21°C° 0 mm 3 m/S 722 mmHg 31%
    17:00 +20°C° 0 mm 3 m/S 722 mmHg 32%
    18:00 +19°C° 0 mm 3 m/S 722 mmHg 33%
    19:00 +18°C° 0 mm 4 m/S 722 mmHg 35%
    20:00 +18°C° 0 mm 4 m/S 723 mmHg 37%
    21:00 +17°C° 0 mm 4 m/S 723 mmHg 39%
    22:00 +15°C° 0 mm 4 m/S 723 mmHg 41%
    23:00 +14°C° 0 mm 4 m/S 723 mmHg 42%

    28 Mai, Dienstag

    Zeit Temperatur Niederschläge Wind Luftdruck Luftfeuchtigkeit
    00:00 +14°C° 0 mm 4 m/S 723 mmHg 44%
    01:00 +13°C° 0 mm 4 m/S 723 mmHg 45%
    02:00 +12°C° 0 mm 4 m/S 723 mmHg 46%
    03:00 +12°C° 0 mm 4 m/S 722 mmHg 47%
    04:00 +11°C° 0 mm 4 m/S 722 mmHg 49%
    05:00 +11°C° 0 mm 3 m/S 723 mmHg 51%
    06:00 +10°C° 0 mm 3 m/S 723 mmHg 53%
    07:00 +12°C° 0 mm 4 m/S 723 mmHg 50%
    08:00 +13°C° 0 mm 4 m/S 724 mmHg 46%
    09:00 +14°C° 0 mm 4 m/S 724 mmHg 43%
    10:00 +15°C° 0 mm 4 m/S 724 mmHg 40%
    11:00 +17°C° 0 mm 3 m/S 723 mmHg 37%
    12:00 +19°C° 0 mm 3 m/S 723 mmHg 33%
    13:00 +19°C° 0 mm 3 m/S 722 mmHg 31%
    14:00 +20°C° 0 mm 3 m/S 721 mmHg 30%
    15:00 +21°C° 0 mm 2 m/S 721 mmHg 28%
    16:00 +20°C° 0 mm 2 m/S 721 mmHg 29%
    17:00 +19°C° 0 mm 2 m/S 721 mmHg 31%
    18:00 +18°C° 0 mm 2 m/S 721 mmHg 33%
    19:00 +17°C° 0 mm 3 m/S 721 mmHg 34%
    20:00 +17°C° 0 mm 3 m/S 722 mmHg 36%
    21:00 +16°C° 0 mm 3 m/S 722 mmHg 37%
    22:00 +14°C° 0 mm 3 m/S 722 mmHg 39%
    23:00 +14°C° 0 mm 3 m/S 722 mmHg 41%

    29 Mai, Mittwoch

    Zeit Temperatur Niederschläge Wind Luftdruck Luftfeuchtigkeit
    00:00 +13°C° 0 mm 4 m/S 722 mmHg 43%
    01:00 +13°C° 0 mm 4 m/S 722 mmHg 44%
    02:00 +12°C° 0 mm 4 m/S 722 mmHg 46%
    03:00 +12°C° 0 mm 4 m/S 722 mmHg 47%
    04:00 +11°C° 0 mm 4 m/S 722 mmHg 50%
    05:00 +11°C° 0 mm 4 m/S 722 mmHg 54%
    06:00 +10°C° 0 mm 4 m/S 722 mmHg 57%
    07:00 +11°C° 0 mm 4 m/S 723 mmHg 55%
    08:00 +12°C° 0 mm 5 m/S 723 mmHg 54%
    09:00 +13°C° 0 mm 5 m/S 724 mmHg 53%
    10:00 +15°C° 0 mm 5 m/S 723 mmHg 48%
    11:00 +17°C° 0 mm 4 m/S 723 mmHg 43%
    12:00 +18°C° 0 mm 3 m/S 722 mmHg 38%
    13:00 +19°C° 0 mm 4 m/S 722 mmHg 35%
    14:00 +20°C° 0 mm 4 m/S 721 mmHg 33%
    15:00 +20°C° 0 mm 5 m/S 721 mmHg 30%
    16:00 +19°C° 0 mm 5 m/S 721 mmHg 33%
    17:00 +17°C° 0 mm 5 m/S 721 mmHg 35%
    18:00 +16°C° 0 mm 5 m/S 722 mmHg 37%
    19:00 +16°C° 0 mm 5 m/S 722 mmHg 42%
    20:00 +15°C° 0 mm 5 m/S 723 mmHg 46%
    21:00 +14°C° 0 mm 6 m/S 723 mmHg 51%
    22:00 +13°C° 0 mm 6 m/S 723 mmHg 54%
    23:00 +13°C° 0 mm 5 m/S 723 mmHg 58%

    30 Mai, Donnerstag

    Zeit Temperatur Niederschläge Wind Luftdruck Luftfeuchtigkeit
    00:00 +12°C° 0 mm 5 m/S 723 mmHg 61%
    01:00 +12°C° 0 mm 5 m/S 723 mmHg 64%
    02:00 +11°C° 0 mm 4 m/S 723 mmHg 66%
    03:00 +11°C° 0 mm 4 m/S 723 mmHg 69%
    04:00 +11°C° 0 mm 4 m/S 723 mmHg 71%
    05:00 +10°C° 0 mm 4 m/S 724 mmHg 74%
    06:00 +10°C° 0 mm 4 m/S 724 mmHg 76%
    07:00 +10°C° 0 mm 5 m/S 724 mmHg 72%
    08:00 +11°C° 0 mm 7 m/S 725 mmHg 67%
    09:00 +11°C° 0 mm 8 m/S 725 mmHg 62%
    10:00 +14°C° 0 mm 7 m/S 725 mmHg 55%
    11:00 +15°C° 0 mm 7 m/S 724 mmHg 49%
    12:00 +17°C° 0 mm 7 m/S 724 mmHg 42%
    13:00 +17°C° 0 mm 7 m/S 724 mmHg 38%
    14:00 +18°C° 0 mm 7 m/S 723 mmHg 35%
    15:00 +18°C° 0 mm 7 m/S 723 mmHg 31%
    16:00 +17°C° 0 mm 6 m/S 723 mmHg 34%
    17:00 +16°C° 0 mm 6 m/S 723 mmHg 36%
    18:00 +15°C° 0 mm 5 m/S 724 mmHg 39%
    19:00 +14°C° 0 mm 5 m/S 724 mmHg 42%
    20:00 +13°C° 0 mm 6 m/S 725 mmHg 45%
    21:00 +11°C° 0 mm 6 m/S 725 mmHg 48%
    22:00 +11°C° 0 mm 6 m/S 725 mmHg 49%
    23:00 +10°C° 0 mm 6 m/S 725 mmHg 49%
    Mehr zeigen